[[{"header":{"parameterUnit":"m.s-1","parameterCategory":1,"la1":30.2991,"la2":30.254,"lo1":-89.0895,"lo2":-89.0444,"dy":0.0017,"dx":0.0017,"nx":28,"ny":28,"refTime":"2025-07-17T21:00:00:Z","depth":0,"parameterNumber":2,"parameterNumberName":"U-component_of_WINDS"},"data":[0,0,0,0,0,0,0,0,0,0,0,0,0,0,0,0,0,0,0,0,0,0,0,0,0,0,0,0,0,0,0,0,0,0,0,0,0,0,0,0,0,0,0,0,0,0,0,0,0,0,0,0,0,0,0,0,0,0,2.292,2.292,0,2.2938,2.2938,2.2939,2.2871,2.2869,2.2867,2.2865,2.2884,2.2886,2.2889,0,0,0,0,0,0,0,0,0,0,0,0,0,2.2825,2.2827,2.292,2.292,2.292,2.2938,2.2938,2.2939,2.2871,2.2868,2.2866,2.2864,2.2883,2.2886,2.2889,0,0,0,0,0,0,0,0,0,0,0,0,0,2.2857,2.2828,2.292,2.2889,2.2886,2.2938,2.2938,2.2939,2.2871,2.2868,2.2865,2.2863,2.2882,2.2886,2.2889,2.2973,0,0,2.29,2.2902,0,0,0,0,0,0,0,0,2.2856,2.2861,2.2893,2.2891,2.2888,2.2899,2.2912,2.295,2.2872,2.2877,2.2865,2.2861,2.2892,2.2894,2.2904,2.2973,2.2974,2.2901,2.2903,2.2905,2.2906,0,0,0,0,0,0,0,2.2853,2.286,2.2927,2.2894,2.2891,2.2873,2.2875,2.2919,2.2901,2.2876,2.2872,2.2875,2.289,2.2901,2.2904,2.2975,2.2901,2.2904,2.2906,2.2908,2.3107,2.311,0,0,0,0,0,0,2.2855,2.2858,2.2927,2.2928,2.2864,2.2878,2.2879,2.2899,2.2901,2.2898,2.2877,2.2871,2.2896,2.29,2.2905,2.2998,2.2905,2.2908,2.291,2.3104,2.3108,2.3111,0,0,0,0,0,0,2.2854,2.2862,2.2926,2.2892,2.2898,2.2882,2.2905,2.2901,2.2912,2.2901,2.2897,2.2892,2.2894,2.29,2.2955,2.2997,2.291,2.2913,2.31,2.3105,2.3109,2.3187,0,0,0,0,0,0,2.2851,2.2862,2.2894,2.2893,2.2901,2.2976,2.2908,2.2903,2.2918,2.2911,2.2914,2.2912,2.2892,2.295,2.2958,2.3001,2.2916,2.3096,2.3102,2.3108,2.318,2.3194,2.3205,0,0,0,0,0,2.2848,2.2917,2.2896,2.2905,2.294,2.2979,2.2983,2.2959,2.2922,2.2953,2.2945,2.2912,2.2992,2.2956,2.2965,2.3009,2.3093,2.3101,2.3107,2.3175,2.3191,2.3205,0,0,0,0,0,0,2.2925,2.2916,2.2893,2.2963,2.2972,2.2968,2.3006,2.2978,2.2998,2.299,2.296,2.2961,2.3021,2.3021,2.2981,2.3087,2.3036,2.3045,2.3084,2.31,2.3112,2.3109,2.2919,0,0,0,0,0,2.2949,2.2982,2.2973,2.3036,2.3041,2.3023,2.3039,2.3019,2.3028,2.3031,2.3028,2.3037,2.3064,2.3082,2.3107,2.3181,2.3178,2.3216,2.3228,2.3238,2.3245,2.328,2.3295,2.3134,2.3134,2.3134,0,0,2.3002,2.3001,2.3023,2.3051,2.3055,2.3088,2.3027,2.3066,2.3089,2.3037,2.3087,2.3086,2.3094,2.3157,2.3185,2.3159,2.329,2.3247,2.3255,2.3257,2.3289,2.3304,2.3317,2.3139,2.3138,2.3137,0,0,2.3112,2.3117,2.3166,2.3171,2.3178,2.3165,2.3178,2.3177,2.3172,2.3223,2.3183,2.3211,2.3259,2.3265,2.3274,2.3383,2.3351,2.3392,2.3456,2.3489,2.3502,2.3513,2.3547,2.3561,2.34,2.3401,2.3401,0,2.3175,2.3223,2.3196,2.3235,2.3247,2.3201,2.325,2.3257,2.3272,2.328,2.3251,2.3307,2.331,2.3372,2.3398,2.3409,2.3419,2.339,2.3502,2.3513,2.3523,2.3555,2.3569,2.3405,2.3405,2.3404,2.3404,0,2.3298,2.3332,2.3372,2.3385,2.3401,2.3446,2.3424,2.3444,2.3423,2.3412,2.3462,2.3463,2.3485,2.3499,2.348,2.3557,2.354,2.3508,2.3455,2.3543,2.3573,2.3586,2.3412,2.341,2.3409,2.3408,0,0,2.3458,2.3453,2.3467,2.347,2.3473,2.3498,2.354,2.356,2.3575,2.3588,2.3619,2.3659,2.3628,2.3638,2.3619,2.365,2.373,2.3612,2.3612,2.363,2.381,2.3831,2.3847,2.371,2.3712,2.3714,2.3808,0,2.3562,2.3631,2.3606,2.3676,2.3704,2.366,2.3695,2.37,2.3691,2.3713,2.3704,2.3731,2.369,2.3695,2.3724,2.3714,2.3765,2.3708,2.3736,2.3738,2.3732,2.3863,2.3887,2.3975,2.382,2.3822,2.3823,0,2.3693,2.3707,2.3779,2.3772,2.3783,2.3816,2.3829,2.3852,2.3856,2.3847,2.3858,2.3831,2.3869,2.3819,2.3869,2.3831,2.3841,2.3838,2.3841,2.384,2.3783,2.3861,2.4003,2.4015,2.3842,2.3841,2.3839,0,2.3795,2.3833,2.3879,2.3884,2.388,2.3902,2.3901,2.3902,2.3914,2.3927,2.3934,2.3952,2.3961,2.3975,2.3953,2.3919,2.4005,2.3954,2.3996,2.3996,2.4013,2.4012,2.4155,2.4027,2.4027,2.4027,2.4027,0,2.3912,2.3957,2.3924,2.3953,2.4,2.3971,2.402,2.4014,2.4014,2.404,2.4004,2.4029,2.4,2.4021,2.4005,2.4046,2.4052,2.4044,2.4038,2.4045,2.4045,2.4049,2.4041,2.403,2.403,2.4029,2.4028,0,2.4033,2.4014,2.4061,2.4051,2.405,2.4085,2.4077,2.4102,2.409,2.4122,2.4128,2.411,2.4132,2.4112,2.4136,2.4124,2.4178,2.4166,2.4176,2.4171,2.4213,2.4207,2.436,2.4376,2.4242,2.4244,2.4245,0,2.4107,2.414,2.4133,2.4146,2.4147,2.4171,2.4181,2.4154,2.4167,2.4172,2.4196,2.4216,2.4229,2.4268,2.4256,2.4273,2.4258,2.431,2.426,2.4264,2.4253,2.425,2.4251,2.4319,2.4321,2.4322,2.4323,0,2.4238,2.4226,2.4243,2.4256,2.427,2.4279,2.4286,2.4299,2.4271,2.4287,2.4309,2.432,2.4342,2.436,2.4373,2.4371,2.4341,2.4339,2.4349,2.4354,2.4357,2.4351,2.4199,2.4335,2.4334,2.4333,2.4332,2.4332,2.4335,2.436,2.4357,2.4377,2.4378,2.4384,2.4406,2.4395,2.4413,2.4427,2.4411,2.4437,2.4437,2.4449,2.4451,2.447,2.4448,2.4464,2.4467,2.447,2.4474,2.4357,2.4473,2.4473,2.4473,2.4472,2.4472,0,2.446,2.4456,2.4474,2.4482,2.4497,2.4467,2.4472,2.4486,2.4509,2.4511,2.4525,2.4548,2.4566,2.4555,2.4569,2.4586,2.4573,2.459,2.4587,2.4586,2.4495,2.4483,2.4601,2.4601,2.4601,2.4601,2.4601,2.4601,2.4527,2.4565,2.4553,2.4591,2.4587,2.4611,2.4615,2.462,2.4621,2.4648,2.4662,2.4654,2.465,2.4663,2.4677,2.4674,2.4679,2.4701,2.4692,2.4606,2.4593,2.4581,2.4569,2.4703,2.4703,2.478,2.4781,2.4781]},{"header":{"parameterUnit":"m.s-1","parameterCategory":1,"la1":30.2991,"la2":30.254,"lo1":-89.0895,"lo2":-89.0444,"dy":0.0017,"dx":0.0017,"nx":28,"ny":28,"refTime":"2025-07-17T21:00:00:Z","depth":0,"parameterNumber":3,"parameterNumberName":"V-component_of_WINDS"},"data":[0,0,0,0,0,0,0,0,0,0,0,0,0,0,0,0,0,0,0,0,0,0,0,0,0,0,0,0,0,0,0,0,0,0,0,0,0,0,0,0,0,0,0,0,0,0,0,0,0,0,0,0,0,0,0,0,0,0,3.2614,3.2615,0,3.2748,3.275,3.2751,3.2709,3.2706,3.2704,3.2701,3.284,3.2846,3.2852,0,0,0,0,0,0,0,0,0,0,0,0,0,3.2319,3.2325,3.2613,3.2615,3.2617,3.2748,3.275,3.2751,3.271,3.2706,3.2703,3.27,3.2838,3.2845,3.2853,0,0,0,0,0,0,0,0,0,0,0,0,0,3.245,3.2327,3.2613,3.2612,3.2613,3.2747,3.275,3.2752,3.2711,3.2706,3.2702,3.2698,3.2835,3.2844,3.2854,3.2998,0,0,3.2883,3.2887,0,0,0,0,0,0,0,0,3.2442,3.2461,3.261,3.2612,3.2614,3.2707,3.2697,3.2835,3.2712,3.2674,3.2701,3.2696,3.2799,3.2811,3.2846,3.3004,3.301,3.2884,3.2889,3.2894,3.2896,0,0,0,0,0,0,0,3.2433,3.2455,3.2667,3.2612,3.2615,3.2604,3.2618,3.2723,3.2759,3.2677,3.2674,3.269,3.2799,3.2837,3.2849,3.3012,3.2883,3.2892,3.2898,3.2901,3.3293,3.3298,0,0,0,0,0,0,3.2423,3.2447,3.2662,3.2671,3.2516,3.2613,3.2628,3.2682,3.2757,3.2765,3.2694,3.2688,3.2823,3.2838,3.2854,3.3026,3.2893,3.2902,3.2908,3.3288,3.3294,3.3299,0,0,0,0,0,0,3.2417,3.2443,3.2657,3.2558,3.2585,3.2622,3.2683,3.2687,3.2724,3.277,3.2777,3.2726,3.282,3.284,3.2962,3.303,3.2907,3.2915,3.3283,3.329,3.3297,3.3372,0,0,0,0,0,0,3.2409,3.2441,3.2497,3.256,3.259,3.2763,3.2687,3.2692,3.2741,3.2734,3.2802,3.2809,3.2818,3.2948,3.2971,3.3041,3.2923,3.3277,3.3286,3.3294,3.3363,3.3381,3.3395,0,0,0,0,0,3.2398,3.2513,3.25,3.2526,3.2661,3.2767,3.2785,3.2792,3.2746,3.2802,3.2831,3.2807,3.3019,3.2961,3.2987,3.306,3.3273,3.3284,3.3294,3.3356,3.3377,3.3395,0,0,0,0,0,0,3.2458,3.2521,3.2507,3.2646,3.2701,3.276,3.2831,3.2815,3.2885,3.2876,3.2883,3.2898,3.3022,3.3054,3.2988,3.3202,3.3139,3.3155,3.3177,3.3198,3.3213,3.3203,3.2931,0,0,0,0,0,3.2487,3.2568,3.262,3.2737,3.2765,3.2793,3.284,3.2841,3.2899,3.2923,3.2961,3.3018,3.3097,3.3149,3.3225,3.3368,3.3381,3.3431,3.3447,3.346,3.3473,3.3549,3.3571,3.3334,3.3334,3.3334,0,0,3.2548,3.2593,3.2644,3.275,3.2793,3.2876,3.2814,3.2905,3.2967,3.2937,3.3053,3.3083,3.3147,3.3279,3.3339,3.3309,3.3542,3.3473,3.3483,3.349,3.3562,3.3585,3.3605,3.3341,3.334,3.3339,0,0,3.2701,3.2744,3.2846,3.289,3.2955,3.2973,3.2997,3.3058,3.3076,3.3193,3.3171,3.3245,3.3382,3.3428,3.3469,3.3637,3.3617,3.3662,3.3745,3.3819,3.3837,3.3854,3.3912,3.3933,3.3676,3.3676,3.3676,0,3.2769,3.2894,3.29,3.2993,3.3039,3.3014,3.3116,3.3159,3.3246,3.3278,3.3243,3.3412,3.3454,3.3595,3.3636,3.3671,3.3698,3.3654,3.3834,3.3851,3.3866,3.3922,3.3944,3.3681,3.368,3.368,3.3679,0,3.2973,3.306,3.3134,3.3217,3.3272,3.3369,3.3389,3.3444,3.3439,3.346,3.3578,3.3627,3.3711,3.3745,3.3743,3.3886,3.3864,3.3832,3.3768,3.3894,3.3946,3.3968,3.3688,3.3686,3.3685,3.3683,0,0,3.3169,3.3252,3.3279,3.3316,3.3386,3.3453,3.3548,3.3629,3.3675,3.3736,3.3815,3.393,3.3899,3.3946,3.3949,3.4013,3.4141,3.3972,3.3974,3.4001,3.43,3.4323,3.4348,3.4128,3.4132,3.4136,3.4294,0,3.3327,3.3494,3.35,3.3652,3.3731,3.3708,3.3791,3.3842,3.3864,3.3934,3.3958,3.4039,3.3994,3.4021,3.4084,3.4112,3.4201,3.4101,3.4201,3.4205,3.4185,3.4376,3.4401,3.4548,3.4315,3.4318,3.4321,0,3.3534,3.3599,3.3759,3.3815,3.3848,3.3923,3.3996,3.4064,3.4121,3.4132,3.4184,3.4176,3.4272,3.4205,3.4337,3.4269,3.431,3.433,3.4336,3.4345,3.427,3.4388,3.4595,3.4617,3.4353,3.4351,3.4348,0,3.3658,3.3786,3.3898,3.393,3.3999,3.4051,3.4082,3.4135,3.4183,3.4248,3.4278,3.4354,3.4395,3.4453,3.4465,3.4416,3.4597,3.4532,3.4608,3.4608,3.4647,3.4644,3.4862,3.4675,3.4675,3.4674,3.4674,0,3.3833,3.3931,3.3954,3.4023,3.4131,3.4138,3.4245,3.4272,3.4319,3.4392,3.4377,3.4445,3.4458,3.4529,3.454,3.4646,3.4666,3.4676,3.4678,3.4677,3.4676,3.4704,3.4693,3.468,3.4679,3.4678,3.4677,0,3.399,3.401,3.4129,3.4184,3.42,3.4277,3.4324,3.4389,3.4408,3.45,3.4522,3.4553,3.4636,3.4654,3.4753,3.4759,3.4886,3.4878,3.4866,3.4865,3.494,3.4932,3.5182,3.5215,3.5008,3.501,3.5012,0,3.41,3.4175,3.4237,3.4284,3.4317,3.4394,3.4442,3.4451,3.4501,3.4571,3.4627,3.4708,3.4773,3.4906,3.4937,3.5012,3.5005,3.5088,3.5016,3.5013,3.5004,3.4999,3.5006,3.5101,3.5103,3.5105,3.5107,0,3.4292,3.4298,3.4367,3.444,3.4498,3.4556,3.4611,3.4651,3.4667,3.4724,3.4808,3.4858,3.4958,3.5038,3.5112,3.5144,3.5128,3.5129,3.515,3.515,3.5139,3.5144,3.4902,3.5123,3.5121,3.512,3.5119,3.5119,3.4428,3.4492,3.4546,3.4623,3.4665,3.4717,3.478,3.4806,3.4876,3.4958,3.4959,3.505,3.5103,3.5201,3.5237,3.5308,3.5283,3.5314,3.5322,3.5329,3.5335,3.5129,3.5322,3.5322,3.5321,3.5321,3.5321,0,3.4618,3.4651,3.4722,3.4799,3.486,3.4839,3.4898,3.495,3.503,3.5081,3.5145,3.524,3.5317,3.5354,3.543,3.5479,3.5474,3.5499,3.5495,3.5502,3.5355,3.5328,3.5502,3.5502,3.5502,3.5502,3.5502,3.5502,3.4724,3.4831,3.4843,3.497,3.5002,3.509,3.5126,3.5173,3.5213,3.532,3.5384,3.5406,3.5451,3.553,3.5599,3.5608,3.5636,3.5664,3.5669,3.5531,3.5513,3.5495,3.547,3.5671,3.5671,3.5811,3.5812,3.5813]}]]